,,,PA_Meas_PMT16A,,PR_Meas_QMR101_102,,RH_Meas_QMH101,,SR_Meas_QMS101,,TA_Meas_QMH101,,GenWind,,GenWind,
date,time,status,PA,status,PR,status,RH,status,SR,status,TA,status,DirAvg,status,SpdAvg,
2010-05-28, 00:00:04,VALID,1002.41,VALID,0,VALID,91.4639,VALID,0,VALID,23.8573,VALID,3,VALID,0,
2010-05-28, 00:01:04,VALID,1002.41,VALID,0,VALID,91.4028,VALID,0,VALID,23.8378,VALID,3,VALID,0.15625,
2010-05-28, 00:02:04,VALID,1002.38,VALID,0,VALID,91.4563,VALID,0,VALID,23.8183,VALID,3,VALID,0.115234,
2010-05-28, 00:03:04,VALID,1002.36,VALID,0,VALID,91.6699,VALID,0,VALID,23.8183,VALID,3,VALID,0.207422,
2010-05-28, 00:04:04,VALID,1002.34,VALID,0,VALID,91.6775,VALID,0,VALID,23.8573,VALID,3,VALID,0.396484,
2010-05-28, 00:05:04,VALID,1002.31,VALID,0,VALID,91.5097,VALID,0,VALID,23.8768,VALID,3,VALID,0.437891,
2010-05-28, 00:06:04,VALID,1002.27,VALID,0,VALID,91.2121,VALID,0,VALID,23.9159,VALID,3,VALID,0.437109,
2010-05-28, 00:07:04,VALID,1002.27,VALID,0,VALID,91.1053,VALID,0,VALID,23.9549,VALID,20,VALID,0.633594,
2010-05-28, 00:08:04,VALID,1002.27,VALID,0,VALID,91.029,VALID,0,VALID,23.9744,VALID,29,VALID,0.855078,
2010-05-28, 00:09:04,VALID,1002.25,VALID,0,VALID,90.8459,VALID,0,VALID,24.0329,VALID,34,VALID,0.738281,
2010-05-28, 00:10:04,VALID,1002.23,VALID,0,VALID,90.4949,VALID,0,VALID,24.0525,VALID,34,VALID,0.876562,
2010-05-28, 00:11:04,VALID,1002.23,VALID,0,VALID,90.4491,VALID,0,VALID,24.072,VALID,34,VALID,0.866406,
2010-05-28, 00:12:04,VALID,1002.23,VALID,0,VALID,90.3423,VALID,0,VALID,24.0915,VALID,35,VALID,0.740234,
2010-05-28, 00:13:04,VALID,1002.19,VALID,0,VALID,90.3194,VALID,0,VALID,24.0915,VALID,35,VALID,0.552734,
2010-05-28, 00:14:04,VALID,1002.2,VALID,0,VALID,90.4339,VALID,0,VALID,24.072,VALID,35,VALID,0.436328,
2010-05-28, 00:15:04,VALID,1002.19,VALID,0,VALID,90.5941,VALID,0,VALID,24.072,VALID,35,VALID,0.494922,
2010-05-28, 00:16:04,VALID,1002.18,VALID,0,VALID,90.7085,VALID,0,VALID,24.072,VALID,35,VALID,0.545703,
2010-05-28, 00:17:04,VALID,1002.17,VALID,0,VALID,90.8001,VALID,0,VALID,24.0525,VALID,46,VALID,0.523828,
2010-05-28, 00:18:04,VALID,1002.1,VALID,0,VALID,90.8611,VALID,0,VALID,24.0525,VALID,47,VALID,0.413672,
2010-05-28, 00:19:04,VALID,1002.09,VALID,0,VALID,90.9222,VALID,0,VALID,24.0738,VALID,47,VALID,0.283594,
2010-05-28, 00:20:04,VALID,1002.08,VALID,0,VALID,91.0443,VALID,0,VALID,24.0525,VALID,47,VALID,0.291016,
2010-05-28, 00:21:04,VALID,1002.06,VALID,0,VALID,91.0977,VALID,0,VALID,24.072,VALID,47,VALID,0.403906,
2010-05-28, 00:22:04,VALID,1002.06,VALID,0,VALID,91.1968,VALID,0,VALID,24.072,VALID,47,VALID,0.353125,
2010-05-28, 00:23:04,VALID,1002.04,VALID,0,VALID,91.2426,VALID,0,VALID,24.111,VALID,47,VALID,0.167578,
2010-05-28, 00:24:04,VALID,1002.08,VALID,0,VALID,91.2121,VALID,0,VALID,24.111,VALID,47,VALID,0,
2010-05-28, 00:25:04,VALID,1002.1,VALID,0,VALID,91.174,VALID,0,VALID,24.1305,VALID,47,VALID,0,
2010-05-28, 00:26:04,VALID,1002.11,VALID,0,VALID,91.0366,VALID,0,VALID,24.111,VALID,47,VALID,0.23125,
2010-05-28, 00:27:04,VALID,1002.16,VALID,0,VALID,91.1129,VALID,0,VALID,24.111,VALID,41,VALID,0.451172,
2010-05-28, 00:28:04,VALID,1002.16,VALID,0,VALID,91.1358,VALID,0,VALID,24.0915,VALID,18,VALID,0.486719,
2010-05-28, 00:29:04,VALID,1002.17,VALID,0,VALID,91.1206,VALID,0,VALID,24.072,VALID,18,VALID,0.408203,
2010-05-28, 00:30:04,VALID,1002.19,VALID,0,VALID,91.1434,VALID,0,VALID,24.0525,VALID,18,VALID,0.342578,
2010-05-28, 00:31:04,VALID,1002.19,VALID,0,VALID,91.3266,VALID,0,VALID,24.0329,VALID,18,VALID,0.376563,
2010-05-28, 00:32:04,VALID,1002.21,VALID,0,VALID,91.3189,VALID,0,VALID,24.0134,VALID,18,VALID,0.197266,
2010-05-28, 00:33:04,VALID,1002.18,VALID,0,VALID,91.4105,VALID,0,VALID,23.9921,VALID,18,VALID,0.297656,
2010-05-28, 00:34:04,VALID,1002.17,VALID,0,VALID,91.6165,VALID,0,VALID,23.9939,VALID,18,VALID,0.398438,
2010-05-28, 00:35:04,VALID,1002.19,VALID,0,VALID,91.441,VALID,0,VALID,23.9744,VALID,18,VALID,0.54375,
2010-05-28, 00:36:04,VALID,1002.18,VALID,0,VALID,91.6546,VALID,0,VALID,23.9549,VALID,41,VALID,0.75625,
2010-05-28, 00:37:04,VALID,1002.16,VALID,0,VALID,91.7385,VALID,0,VALID,23.9549,VALID,56,VALID,0.951563,
2010-05-28, 00:38:04,VALID,1002.15,VALID,0,VALID,91.8225,VALID,0,VALID,23.9354,VALID,56,VALID,0.885156,
2010-05-28, 00:39:04,VALID,1002.14,VALID,0,VALID,91.9369,VALID,0,VALID,23.9549,VALID,56,VALID,0.835547,
2010-05-28, 00:40:04,VALID,1002.1,VALID,0,VALID,92.0209,VALID,0,VALID,23.9549,VALID,56,VALID,0.879297,
2010-05-28, 00:41:04,VALID,1002.07,VALID,0,VALID,91.9217,VALID,0,VALID,23.9744,VALID,56,VALID,0.729297,
2010-05-28, 00:42:04,VALID,1002.04,VALID,0,VALID,91.8377,VALID,0,VALID,23.9549,VALID,56,VALID,0.603516,
2010-05-28, 00:43:04,VALID,1002.01,VALID,0,VALID,91.8377,VALID,0,VALID,23.9354,VALID,56,VALID,0.0945313,
2010-05-28, 00:44:04,VALID,1001.99,VALID,0,VALID,91.8606,VALID,0,VALID,23.8945,VALID,56,VALID,0,
2010-05-28, 00:45:04,VALID,1001.97,VALID,0,VALID,91.9217,VALID,0,VALID,23.8963,VALID,56,VALID,0,
2010-05-28, 00:46:04,VALID,1001.92,VALID,0,VALID,91.9751,VALID,0,VALID,23.8963,VALID,56,VALID,0.003125,
2010-05-28, 00:47:04,VALID,1001.91,VALID,0,VALID,91.9903,VALID,0,VALID,23.8768,VALID,56,VALID,0.319922,
2010-05-28, 00:48:04,VALID,1001.86,VALID,0,VALID,91.998,VALID,0,VALID,23.8768,VALID,56,VALID,0.513281,
2010-05-28, 00:49:04,VALID,1001.84,VALID,0,VALID,92.0743,VALID,0,VALID,23.9159,VALID,65,VALID,0.592578,
2010-05-28, 00:50:04,VALID,1001.84,VALID,0,VALID,92.1353,VALID,0,VALID,23.9159,VALID,65,VALID,0.547656,
2010-05-28, 00:51:04,VALID,1001.8,VALID,0,VALID,92.0971,VALID,0,VALID,23.9354,VALID,65,VALID,0.439453,
2010-05-28, 00:52:04,VALID,1001.76,VALID,0,VALID,92.0361,VALID,0,VALID,23.9159,VALID,65,VALID,0.191797,
2010-05-28, 00:53:04,VALID,1001.79,VALID,0,VALID,92.059,VALID,0,VALID,23.9159,VALID,65,VALID,0,
2010-05-28, 00:54:04,VALID,1001.77,VALID,0,VALID,92.0971,VALID,0,VALID,23.8963,VALID,65,VALID,0,
2010-05-28, 00:55:04,VALID,1001.78,VALID,0,VALID,92.1811,VALID,0,VALID,23.8963,VALID,65,VALID,0,
2010-05-28, 00:56:04,VALID,1001.79,VALID,0,VALID,92.2345,VALID,0,VALID,23.9159,VALID,65,VALID,0,
2010-05-28, 00:57:04,VALID,1001.79,VALID,0,VALID,92.2726,VALID,0,VALID,23.8963,VALID,65,VALID,0,
2010-05-28, 00:58:04,VALID,1001.79,VALID,0,VALID,92.2879,VALID,0,VALID,23.8963,VALID,65,VALID,0,
2010-05-28, 00:59:04,VALID,1001.83,VALID,0,VALID,92.3337,VALID,0,VALID,23.8963,VALID,65,VALID,0,
2010-05-28, 01:00:04,VALID,1001.81,VALID,0,VALID,92.3413,VALID,0,VALID,23.8945,VALID,65,VALID,0.234375,
2010-05-28, 01:01:04,VALID,1001.84,VALID,0,VALID,92.3184,VALID,0,VALID,23.9159,VALID,65,VALID,0.425391,
2010-05-28, 01:02:04,VALID,1001.84,VALID,0,VALID,92.2421,VALID,0,VALID,23.9549,VALID,70,VALID,0.533594,
2010-05-28, 01:03:04,VALID,1001.86,VALID,0,VALID,92.1124,VALID,0,VALID,23.9939,VALID,71,VALID,0.494922,
2010-05-28, 01:04:04,VALID,1001.86,VALID,0,VALID,91.9445,VALID,0,VALID,24.0134,VALID,71,VALID,0.531641,
2010-05-28, 01:05:04,VALID,1001.85,VALID,0,VALID,91.7233,VALID,0,VALID,24.0525,VALID,71,VALID,0.641016,
2010-05-28, 01:06:04,VALID,1001.86,VALID,0,VALID,91.5631,VALID,0,VALID,24.0915,VALID,73,VALID,0.646484,
2010-05-28, 01:07:04,VALID,1001.84,VALID,0,VALID,91.4334,VALID,0,VALID,24.1305,VALID,83,VALID,0.610156,
2010-05-28, 01:08:04,VALID,1001.83,VALID,0,VALID,91.3037,VALID,0,VALID,24.15,VALID,93,VALID,0.641016,
2010-05-28, 01:09:04,VALID,1001.82,VALID,0,VALID,91.2045,VALID,0,VALID,24.1714,VALID,93,VALID,0.376953,
2010-05-28, 01:10:04,VALID,1001.79,VALID,0,VALID,91.1206,VALID,0,VALID,24.15,VALID,114,VALID,0.364062,
2010-05-28, 01:11:04,VALID,1001.76,VALID,0,VALID,91.0519,VALID,0,VALID,24.15,VALID,114,VALID,0.267578,
2010-05-28, 01:12:04,VALID,1001.74,VALID,0,VALID,91.0366,VALID,0,VALID,24.1305,VALID,150,VALID,0.471875,
2010-05-28, 01:13:04,VALID,1001.74,VALID,0,VALID,90.9451,VALID,0,VALID,24.15,VALID,147,VALID,0.390625,
2010-05-28, 01:14:04,VALID,1001.72,VALID,0,VALID,90.884,VALID,0,VALID,24.15,VALID,147,VALID,0.251172,
2010-05-28, 01:15:04,VALID,1001.73,VALID,0,VALID,90.8306,VALID,0,VALID,24.15,VALID,147,VALID,0.152734,
2010-05-28, 01:16:04,VALID,1001.7,VALID,0,VALID,90.8154,VALID,0,VALID,24.15,VALID,147,VALID,0.021875,
2010-05-28, 01:17:04,VALID,1001.69,VALID,0,VALID,90.8077,VALID,0,VALID,24.15,VALID,147,VALID,0.183594,
2010-05-28, 01:18:04,VALID,1001.67,VALID,0,VALID,90.7696,VALID,0,VALID,24.1872,VALID,147,VALID,0.0105469,
2010-05-28, 01:19:04,VALID,1001.61,VALID,0,VALID,90.7849,VALID,0,VALID,24.1464,VALID,147,VALID,0,
2010-05-28, 01:20:04,VALID,1001.58,VALID,0,VALID,90.823,VALID,0,VALID,24.2067,VALID,147,VALID,0.144531,
2010-05-28, 01:21:04,VALID,1001.56,VALID,0,VALID,90.7772,VALID,0.112286,VALID,24.2067,VALID,147,VALID,0,
2010-05-28, 01:22:04,VALID,1001.52,VALID,0,VALID,90.823,VALID,0.112286,VALID,24.2458,VALID,147,VALID,0.00117188,
2010-05-28, 01:23:04,VALID,1001.47,VALID,0,VALID,90.7543,VALID,0.112286,VALID,24.2458,VALID,147,VALID,0,
2010-05-28, 01:24:04,VALID,1001.45,VALID,0,VALID,90.6551,VALID,0.112286,VALID,24.2439,VALID,147,VALID,0,
2010-05-28, 01:25:04,VALID,1001.41,VALID,0,VALID,90.5102,VALID,0.112286,VALID,24.2653,VALID,147,VALID,0,
2010-05-28, 01:26:04,VALID,1001.39,VALID,0,VALID,90.4415,VALID,0,VALID,24.2848,VALID,147,VALID,0,
2010-05-28, 01:27:04,VALID,1001.34,VALID,0,VALID,90.3347,VALID,0.112286,VALID,24.2848,VALID,147,VALID,0,
2010-05-28, 01:28:04,VALID,1001.32,VALID,0,VALID,90.2584,VALID,0.112286,VALID,24.2634,VALID,147,VALID,0,
2010-05-28, 01:29:04,VALID,1001.3,VALID,0,VALID,90.2126,VALID,0,VALID,24.2848,VALID,147,VALID,0,
2010-05-28, 01:30:04,VALID,1001.27,VALID,0,VALID,90.3957,VALID,0,VALID,24.2848,VALID,181,VALID,0.364453,
2010-05-28, 01:31:04,VALID,1001.27,VALID,0,VALID,90.678,VALID,0.112286,VALID,24.2848,VALID,274,VALID,0.532031,
2010-05-28, 01:32:04,VALID,1001.25,VALID,0,VALID,90.7772,VALID,0.112286,VALID,24.2458,VALID,274,VALID,0.335156,
2010-05-28, 01:33:04,VALID,1001.23,VALID,0,VALID,90.823,VALID,0,VALID,24.2476,VALID,274,VALID,0.252344,
2010-05-28, 01:34:04,VALID,1001.28,VALID,0,VALID,90.8688,VALID,0,VALID,24.2281,VALID,274,VALID,0.0839844,
2010-05-28, 01:35:04,VALID,1001.23,VALID,0,VALID,90.8917,VALID,0,VALID,24.2281,VALID,241,VALID,0.587891,
2010-05-28, 01:36:04,VALID,1001.27,VALID,0,VALID,90.884,VALID,0,VALID,24.2476,VALID,222,VALID,0.896875,
2010-05-28, 01:37:04,VALID,1001.26,VALID,0,VALID,90.8611,VALID,0,VALID,24.2476,VALID,226,VALID,1.17773,
2010-05-28, 01:38:04,VALID,1001.28,VALID,0,VALID,90.7772,VALID,0,VALID,24.2885,VALID,220,VALID,1.19375,
2010-05-28, 01:39:04,VALID,1001.24,VALID,0,VALID,90.6628,VALID,0,VALID,24.2866,VALID,213,VALID,1.39258,
2010-05-28, 01:40:04,VALID,1001.26,VALID,0,VALID,90.5331,VALID,0,VALID,24.3257,VALID,212,VALID,1.26758,
2010-05-28, 01:41:04,VALID,1001.24,VALID,0,VALID,90.4491,VALID,0,VALID,24.3452,VALID,187,VALID,1.45859,
2010-05-28, 01:42:04,VALID,1001.24,VALID,0,VALID,90.556,VALID,0,VALID,24.3647,VALID,194,VALID,1.5168,
2010-05-28, 01:43:04,VALID,1001.27,VALID,0,VALID,90.6551,VALID,0,VALID,24.3842,VALID,186,VALID,1.22266,
2010-05-28, 01:44:04,VALID,1001.25,VALID,0,VALID,90.6933,VALID,0,VALID,24.3842,VALID,185,VALID,1.0332,
2010-05-28, 01:45:04,VALID,1001.28,VALID,0,VALID,90.7162,VALID,0,VALID,24.3824,VALID,173,VALID,1.33516,
2010-05-28, 01:46:04,VALID,1001.31,VALID,0,VALID,90.6017,VALID,0,VALID,24.3842,VALID,159,VALID,1.48789,
2010-05-28, 01:47:04,VALID,1001.31,VALID,0,VALID,90.7314,VALID,0,VALID,24.3647,VALID,168,VALID,1.00586,
2010-05-28, 01:48:04,VALID,1001.33,VALID,0,VALID,90.8993,VALID,0,VALID,24.3257,VALID,161,VALID,1.47227,
2010-05-28, 01:49:04,VALID,1001.34,VALID,0,VALID,91.0443,VALID,0,VALID,24.3062,VALID,156,VALID,1.04102,
2010-05-28, 01:50:04,VALID,1001.35,VALID,0,VALID,91.1206,VALID,0,VALID,24.2866,VALID,157,VALID,0.677734,
2010-05-28, 01:51:04,VALID,1001.33,VALID,0,VALID,91.235,VALID,0,VALID,24.269,VALID,156,VALID,0.512891,
2010-05-28, 01:52:04,VALID,1001.33,VALID,0,VALID,91.2884,VALID,0,VALID,24.2476,VALID,151,VALID,0.384766,
2010-05-28, 01:53:04,VALID,1001.33,VALID,0,VALID,91.3647,VALID,0,VALID,24.2263,VALID,151,VALID,0.43125,
2010-05-28, 01:54:04,VALID,1001.33,VALID,0,VALID,91.4028,VALID,0,VALID,24.2086,VALID,151,VALID,0.410547,
2010-05-28, 01:55:04,VALID,1001.31,VALID,0,VALID,91.502,VALID,0,VALID,24.2086,VALID,151,VALID,0.436719,
2010-05-28, 01:56:04,VALID,1001.28,VALID,0,VALID,91.5478,VALID,0,VALID,24.2086,VALID,150,VALID,0.322656,
2010-05-28, 01:57:04,VALID,1001.28,VALID,0,VALID,91.6241,VALID,0,VALID,24.1909,VALID,94,VALID,0.420312,
2010-05-28, 01:58:04,VALID,1001.24,VALID,0,VALID,91.6317,VALID,0,VALID,24.1696,VALID,94,VALID,0.251953,
2010-05-28, 01:59:04,VALID,1001.2,VALID,0,VALID,91.6775,VALID,0,VALID,24.15,VALID,94,VALID,0.318359,
2010-05-28, 02:00:04,VALID,1001.18,VALID,0,VALID,91.7004,VALID,0,VALID,24.15,VALID,94,VALID,0.0277344,
2010-05-28, 02:01:04,VALID,1001.16,VALID,0,VALID,91.7385,VALID,0,VALID,24.15,VALID,94,VALID,0,
2010-05-28, 02:02:04,VALID,1001.14,VALID,0,VALID,91.7614,VALID,0,VALID,24.1696,VALID,94,VALID,0.000390625,
2010-05-28, 02:03:04,VALID,1001.14,VALID,0,VALID,91.7462,VALID,0.112286,VALID,24.1677,VALID,94,VALID,0.502344,
2010-05-28, 02:04:04,VALID,1001.15,VALID,0,VALID,91.6928,VALID,0.112286,VALID,24.1482,VALID,75,VALID,0.6125,
2010-05-28, 02:05:04,VALID,1001.12,VALID,0,VALID,91.6394,VALID,0.112286,VALID,24.1482,VALID,39,VALID,0.654297,
2010-05-28, 02:06:04,VALID,1001.14,VALID,0,VALID,91.6851,VALID,0,VALID,24.1482,VALID,38,VALID,0.691797,
2010-05-28, 02:07:04,VALID,1001.12,VALID,0,VALID,91.7004,VALID,0.112286,VALID,24.1287,VALID,38,VALID,0.757031,
2010-05-28, 02:08:04,VALID,1001.1,VALID,0,VALID,91.6928,VALID,0,VALID,24.1092,VALID,38,VALID,0.724609,
2010-05-28, 02:09:04,VALID,1001.07,VALID,0,VALID,91.7004,VALID,0.112286,VALID,24.1092,VALID,38,VALID,0.578516,
2010-05-28, 02:10:04,VALID,1001.07,VALID,0,VALID,91.7309,VALID,0.112286,VALID,24.1092,VALID,38,VALID,0.535156,
2010-05-28, 02:11:04,VALID,1001.05,VALID,0,VALID,91.7843,VALID,0.112286,VALID,24.1092,VALID,38,VALID,0.355078,
2010-05-28, 02:12:04,VALID,1001.01,VALID,0,VALID,91.853,VALID,0.112286,VALID,24.0897,VALID,38,VALID,0.235938,
2010-05-28, 02:13:04,VALID,1000.97,VALID,0,VALID,91.9064,VALID,0,VALID,24.1092,VALID,38,VALID,0.0703125,
2010-05-28, 02:14:04,VALID,1000.97,VALID,0,VALID,91.9751,VALID,0,VALID,24.1305,VALID,38,VALID,0.13125,
2010-05-28, 02:15:04,VALID,1000.94,VALID,0,VALID,92.0819,VALID,0.112286,VALID,24.1482,VALID,38,VALID,0.277344,
2010-05-28, 02:16:04,VALID,1000.92,VALID,0,VALID,92.1429,VALID,0,VALID,24.1482,VALID,38,VALID,0.358594,
2010-05-28, 02:17:04,VALID,1000.89,VALID,0,VALID,92.1048,VALID,0.112286,VALID,24.1677,VALID,38,VALID,0.424609,
2010-05-28, 02:18:04,VALID,1000.88,VALID,0,VALID,92.0437,VALID,0,VALID,24.1696,VALID,38,VALID,0.472656,
2010-05-28, 02:19:04,VALID,1000.86,VALID,0,VALID,92.0361,VALID,0,VALID,24.1696,VALID,352,VALID,0.505078,
2010-05-28, 02:20:04,VALID,1000.87,VALID,0,VALID,92.0285,VALID,0,VALID,24.1696,VALID,337,VALID,0.529297,
2010-05-28, 02:21:04,VALID,1000.86,VALID,0,VALID,92.0361,VALID,0,VALID,24.1696,VALID,337,VALID,0.530469,
2010-05-28, 02:22:04,VALID,1000.84,VALID,0,VALID,92.0895,VALID,0,VALID,24.15,VALID,337,VALID,0.490234,
2010-05-28, 02:23:04,VALID,1000.88,VALID,0,VALID,92.1124,VALID,0,VALID,24.15,VALID,337,VALID,0.386719,
2010-05-28, 02:24:04,VALID,1000.89,VALID,0,VALID,92.1048,VALID,0,VALID,24.15,VALID,337,VALID,0.136719,
2010-05-28, 02:25:04,VALID,1000.87,VALID,0,VALID,92.12,VALID,0,VALID,24.1092,VALID,337,VALID,0,
2010-05-28, 02:26:04,VALID,1000.93,VALID,0,VALID,92.1734,VALID,0,VALID,24.1092,VALID,337,VALID,0.00429688,
2010-05-28, 02:27:04,VALID,1000.96,VALID,0,VALID,92.1887,VALID,0,VALID,24.111,VALID,337,VALID,0,
2010-05-28, 02:28:04,VALID,1000.95,VALID,0,VALID,92.1353,VALID,0,VALID,24.0915,VALID,337,VALID,0.269531,
2010-05-28, 02:29:04,VALID,1000.94,VALID,0,VALID,92.2574,VALID,0,VALID,24.0915,VALID,337,VALID,0.247266,
2010-05-28, 02:30:04,VALID,1000.98,VALID,0,VALID,92.2726,VALID,0,VALID,24.072,VALID,337,VALID,0.362109,
2010-05-28, 02:31:04,VALID,1000.97,VALID,0,VALID,92.3031,VALID,0,VALID,24.0525,VALID,337,VALID,0.419531,
2010-05-28, 02:32:04,VALID,1000.99,VALID,0,VALID,92.326,VALID,0,VALID,24.0329,VALID,337,VALID,0.453516,
2010-05-28, 02:33:04,VALID,1000.99,VALID,0,VALID,92.3947,VALID,0,VALID,24.0134,VALID,337,VALID,0.292578,
2010-05-28, 02:34:04,VALID,1000.99,VALID,0,VALID,92.41,VALID,0,VALID,23.9726,VALID,337,VALID,0,
2010-05-28, 02:35:04,VALID,1001.04,VALID,0,VALID,92.4786,VALID,0,VALID,23.9939,VALID,337,VALID,0,
2010-05-28, 02:36:04,VALID,1001.05,VALID,0,VALID,92.5015,VALID,0,VALID,23.9744,VALID,337,VALID,0,
2010-05-28, 02:37:04,VALID,1001.05,VALID,0,VALID,92.5473,VALID,0,VALID,23.9939,VALID,337,VALID,0.439844,
2010-05-28, 02:38:04,VALID,1001.05,VALID,0,VALID,92.5778,VALID,0,VALID,23.9939,VALID,83,VALID,0.792578,
2010-05-28, 02:39:04,VALID,1001.06,VALID,0,VALID,92.5702,VALID,0,VALID,23.9939,VALID,81,VALID,0.96875,
2010-05-28, 02:40:04,VALID,1001.05,VALID,0,VALID,92.5244,VALID,0,VALID,24.0134,VALID,80,VALID,0.798437,
2010-05-28, 02:41:04,VALID,1001.04,VALID,0,VALID,92.5168,VALID,0,VALID,24.0311,VALID,80,VALID,0.836719,
2010-05-28, 02:42:04,VALID,1000.99,VALID,0,VALID,92.4557,VALID,0,VALID,24.072,VALID,71,VALID,1.05742,
2010-05-28, 02:43:04,VALID,1000.97,VALID,0,VALID,92.3947,VALID,0,VALID,24.072,VALID,62,VALID,0.852734,
2010-05-28, 02:44:04,VALID,1000.95,VALID,0,VALID,92.3337,VALID,0,VALID,24.0915,VALID,54,VALID,0.670313,
2010-05-28, 02:45:04,VALID,1000.94,VALID,0,VALID,92.2879,VALID,0,VALID,24.1128,VALID,50,VALID,0.853125,
2010-05-28, 02:46:04,VALID,1000.89,VALID,0,VALID,92.265,VALID,0,VALID,24.0915,VALID,47,VALID,0.772656,
2010-05-28, 02:47:04,VALID,1000.92,VALID,0,VALID,92.2497,VALID,0,VALID,24.0915,VALID,30,VALID,0.713281,
2010-05-28, 02:48:04,VALID,1000.92,VALID,0,VALID,92.2421,VALID,0,VALID,24.0897,VALID,30,VALID,1.26992,
2010-05-28, 02:49:04,VALID,1000.95,VALID,0,VALID,92.1887,VALID,0,VALID,24.0915,VALID,36,VALID,1.45195,
2010-05-28, 02:50:04,VALID,1000.98,VALID,0,VALID,92.2116,VALID,0,VALID,24.0897,VALID,30,VALID,1.34297,
2010-05-28, 02:51:04,VALID,1000.99,VALID,0,VALID,92.2803,VALID,0,VALID,24.0897,VALID,42,VALID,1.32383,
2010-05-28, 02:52:04,VALID,1001,VALID,0,VALID,92.3413,VALID,0,VALID,24.0701,VALID,45,VALID,1.32109,
2010-05-28, 02:53:04,VALID,1000.98,VALID,0,VALID,92.3718,VALID,0,VALID,24.0701,VALID,61,VALID,1.08008,
2010-05-28, 02:54:04,VALID,1000.97,VALID,0,VALID,92.4176,VALID,0,VALID,24.0701,VALID,58,VALID,1.09687,
2010-05-28, 02:55:04,VALID,1000.96,VALID,0,VALID,92.4557,VALID,0,VALID,24.0293,VALID,64,VALID,0.829687,
2010-05-28, 02:56:04,VALID,1000.94,VALID,0,VALID,92.4786,VALID,0,VALID,24.0701,VALID,64,VALID,0.717188,
2010-05-28, 02:57:04,VALID,1000.89,VALID,0,VALID,92.471,VALID,0,VALID,24.0506,VALID,58,VALID,0.792969,
2010-05-28, 02:58:04,VALID,1000.86,VALID,0,VALID,92.4481,VALID,0,VALID,24.0506,VALID,58,VALID,0.53125,
2010-05-28, 02:59:04,VALID,1000.82,VALID,0,VALID,92.3871,VALID,0,VALID,24.0311,VALID,58,VALID,0.634375,
2010-05-28, 03:00:04,VALID,1000.79,VALID,0,VALID,92.3184,VALID,0,VALID,24.0311,VALID,58,VALID,0.654688,
2010-05-28, 03:01:04,VALID,1000.81,VALID,0,VALID,92.2726,VALID,0,VALID,24.0116,VALID,58,VALID,0.685156,
2010-05-28, 03:02:04,VALID,1000.8,VALID,0,VALID,92.2345,VALID,0,VALID,24.0116,VALID,58,VALID,0.819922,
2010-05-28, 03:03:04,VALID,1000.78,VALID,0,VALID,92.265,VALID,0,VALID,24.0134,VALID,58,VALID,0.843359,
2010-05-28, 03:04:04,VALID,1000.83,VALID,0,VALID,92.2726,VALID,0,VALID,24.0134,VALID,58,VALID,0.823047,
2010-05-28, 03:05:04,VALID,1000.84,VALID,0,VALID,92.3184,VALID,0,VALID,23.9921,VALID,61,VALID,0.625781,
2010-05-28, 03:06:04,VALID,1000.82,VALID,0,VALID,92.3108,VALID,0,VALID,24.0134,VALID,66,VALID,0.669531,
2010-05-28, 03:07:04,VALID,1000.81,VALID,0,VALID,92.326,VALID,0,VALID,23.9939,VALID,81,VALID,0.770703,
2010-05-28, 03:08:04,VALID,1000.79,VALID,0,VALID,92.2803,VALID,0,VALID,24.0153,VALID,91,VALID,0.595703,
2010-05-28, 03:09:04,VALID,1000.79,VALID,0,VALID,92.2955,VALID,0,VALID,23.9939,VALID,91,VALID,0.7125,
2010-05-28, 03:10:04,VALID,1000.8,VALID,0,VALID,92.265,VALID,0,VALID,23.9744,VALID,93,VALID,0.709766,
2010-05-28, 03:11:04,VALID,1000.82,VALID,0,VALID,92.2879,VALID,0,VALID,23.9549,VALID,114,VALID,0.715625,
2010-05-28, 03:12:04,VALID,1000.83,VALID,0,VALID,92.2879,VALID,0,VALID,23.9744,VALID,126,VALID,1.07187,
2010-05-28, 03:13:04,VALID,1000.85,VALID,0,VALID,92.2879,VALID,0,VALID,23.9744,VALID,133,VALID,0.908203,
2010-05-28, 03:14:04,VALID,1000.85,VALID,0,VALID,92.2268,VALID,0,VALID,23.9939,VALID,140,VALID,0.759766,
2010-05-28, 03:15:04,VALID,1000.88,VALID,0,VALID,92.1887,VALID,0,VALID,24.0134,VALID,140,VALID,0.207031,
2010-05-28, 03:16:04,VALID,1000.9,VALID,0,VALID,92.204,VALID,0,VALID,24.0134,VALID,133,VALID,0.824609,
2010-05-28, 03:17:04,VALID,1000.92,VALID,0,VALID,92.2574,VALID,0,VALID,24.0329,VALID,129,VALID,0.6875,
2010-05-28, 03:18:04,VALID,1000.95,VALID,0,VALID,92.2803,VALID,0,VALID,24.0329,VALID,130,VALID,0.630469,
2010-05-28, 03:19:04,VALID,1000.98,VALID,0,VALID,92.3184,VALID,0,VALID,24.0525,VALID,122,VALID,0.590234,
2010-05-28, 03:20:04,VALID,1000.97,VALID,0,VALID,92.3337,VALID,0,VALID,24.0525,VALID,112,VALID,0.499219,
2010-05-28, 03:21:04,VALID,1000.99,VALID,0,VALID,92.3718,VALID,0,VALID,24.072,VALID,96,VALID,0.627344,
2010-05-28, 03:22:04,VALID,1000.97,VALID,0,VALID,92.326,VALID,0,VALID,24.0525,VALID,93,VALID,0.311328,
2010-05-28, 03:23:04,VALID,1000.99,VALID,0,VALID,92.1734,VALID,0,VALID,24.072,VALID,51,VALID,0.569141,
2010-05-28, 03:24:04,VALID,1001,VALID,0,VALID,92.1124,VALID,0,VALID,24.0329,VALID,39,VALID,0.617578,
2010-05-28, 03:25:04,VALID,1000.99,VALID,0,VALID,92.1734,VALID,0,VALID,24.0329,VALID,47,VALID,0.679688,
2010-05-28, 03:26:04,VALID,1000.98,VALID,0,VALID,92.2116,VALID,0,VALID,24.0134,VALID,47,VALID,0.467187,
2010-05-28, 03:27:04,VALID,1001,VALID,0,VALID,92.2192,VALID,0,VALID,24.0134,VALID,47,VALID,0.399219,
2010-05-28, 03:28:04,VALID,1000.98,VALID,0,VALID,92.2345,VALID,0,VALID,23.9939,VALID,47,VALID,0.135156,
2010-05-28, 03:29:04,VALID,1001.02,VALID,0,VALID,92.2497,VALID,0,VALID,23.9939,VALID,47,VALID,0.0148437,
2010-05-28, 03:30:04,VALID,1001.06,VALID,0,VALID,92.3566,VALID,0,VALID,23.9744,VALID,47,VALID,0.222656,
2010-05-28, 03:31:04,VALID,1001.07,VALID,0,VALID,92.4176,VALID,0,VALID,23.9744,VALID,47,VALID,0.219922,
2010-05-28, 03:32:04,VALID,1001.06,VALID,0,VALID,92.5015,VALID,0,VALID,23.9744,VALID,47,VALID,0,
2010-05-28, 03:33:04,VALID,1001.11,VALID,0,VALID,92.5473,VALID,0,VALID,23.9744,VALID,13,VALID,0,
2010-05-28, 03:34:04,VALID,1001.11,VALID,0,VALID,92.6083,VALID,0,VALID,23.9939,VALID,344,VALID,0.658594,
2010-05-28, 03:35:04,VALID,1001.1,VALID,0,VALID,92.6083,VALID,0,VALID,23.9939,VALID,338,VALID,0.655859,
2010-05-28, 03:36:04,VALID,1001.12,VALID,0,VALID,92.6236,VALID,0,VALID,23.9939,VALID,338,VALID,0.411719,
2010-05-28, 03:37:04,VALID,1001.09,VALID,0,VALID,92.5931,VALID,0,VALID,23.9939,VALID,340,VALID,0.0261719,
2010-05-28, 03:38:04,VALID,1001.09,VALID,0,VALID,92.5091,VALID,0,VALID,24.0134,VALID,137,VALID,0.858203,
2010-05-28, 03:39:04,VALID,1001.08,VALID,0,VALID,92.204,VALID,0,VALID,24.0525,VALID,138,VALID,0.717188,
2010-05-28, 03:40:04,VALID,1001.09,VALID,0,VALID,91.8454,VALID,0,VALID,24.111,VALID,138,VALID,0.153516,
2010-05-28, 03:41:04,VALID,1001.09,VALID,0,VALID,91.586,VALID,0,VALID,24.15,VALID,138,VALID,0,
2010-05-28, 03:42:04,VALID,1001.11,VALID,0,VALID,91.4334,VALID,0,VALID,24.1696,VALID,138,VALID,0.308594,
2010-05-28, 03:43:04,VALID,1001.11,VALID,0,VALID,91.4715,VALID,0,VALID,24.1696,VALID,251,VALID,0.525,
2010-05-28, 03:44:04,VALID,1001.09,VALID,0,VALID,91.5936,VALID,0,VALID,24.1696,VALID,251,VALID,0.491797,
2010-05-28, 03:45:04,VALID,1001.08,VALID,0,VALID,91.6546,VALID,0,VALID,24.1696,VALID,251,VALID,0.433203,
2010-05-28, 03:46:04,VALID,1001.11,VALID,0,VALID,91.7004,VALID,0,VALID,24.1696,VALID,251,VALID,0.234766,